GEFSNGP_850_meantemp_048.txt.gz
Temperature
15 16 16 15 15 14 13 14 14 15 16 17 18 18 18 18 17 15 13 11 9 7 5 3 2 1 1 1 1 1 0 -1 -1 -2 -3 -3 -4 -4 -5 -6 -7 -7 -8 -9
13 15 15 13 14 14 14 14 14 15 15 16 18 18 18 17 16 15 14 12 10 8 5 4 2 1 1 1 1 1 0 -1 -1 -2 -2 -3 -4 -4 -5 -5 -6 -7 -8 -9
12 15 13 12 14 13 13 13 13 13 14 16 16 16 17 17 16 15 14 13 11 9 7 5 3 2 2 2 1 1 0 -1 -1 -2 -2 -3 -3 -4 -4 -5 -6 -7 -8 -9
11 13 11 15 16 15 14 14 13 13 13 14 15 16 16 17 16 16 15 14 12 11 8 6 4 2 2 2 1 1 0 -1 -1 -2 -2 -3 -3 -4 -4 -5 -6 -7 -7 -8
10 10 12 15 15 14 13 12 13 13 13 14 16 14 15 18 17 16 15 14 13 11 9 6 4 3 2 2 1 1 0 -0 -1 -2 -2 -3 -3 -3 -4 -4 -5 -6 -7 -8
9 9 10 15 14 14 13 12 15 14 13 14 13 11 13 17 17 16 15 14 12 11 9 6 5 3 2 2 2 1 1 -0 -1 -2 -2 -2 -3 -3 -4 -4 -5 -6 -6 -7
8 8 11 14 12 12 13 15 18 18 17 16 12 14 17 17 16 15 14 13 11 10 9 7 6 4 3 2 2 2 1 -0 -1 -2 -2 -2 -3 -3 -4 -4 -5 -5 -6 -7
8 8 10 12 10 12 14 17 18 19 18 18 17 17 17 16 15 15 14 12 11 9 8 7 5 4 3 3 3 1 0 -0 -1 -2 -2 -2 -3 -3 -4 -4 -4 -5 -6 -6
11 13 15 14 14 16 16 16 17 17 17 16 16 16 16 16 16 15 14 12 10 9 7 6 5 5 4 3 2 1 0 -0 -1 -2 -2 -2 -3 -3 -4 -4 -5 -5 -6 -6
11 12 14 15 15 16 16 16 17 17 17 16 16 16 16 16 15 14 13 12 10 8 7 6 5 5 4 3 2 1 0 -0 -1 -2 -2 -3 -3 -3 -4 -4 -5 -5 -6 -6
10 12 14 16 16 17 17 17 17 17 17 16 16 15 15 15 15 14 13 12 10 8 8 7 5 4 4 2 2 1 0 -1 -1 -2 -2 -3 -3 -3 -4 -4 -5 -5 -6 -7
13 14 13 15 16 16 16 16 16 16 16 15 15 15 14 14 14 13 12 11 10 9 7 6 4 4 3 2 2 1 0 -0 -1 -2 -2 -3 -3 -3 -4 -4 -5 -5 -6 -7
14 15 15 15 15 15 15 15 15 15 14 14 14 13 13 13 12 12 11 10 10 9 8 5 4 3 3 2 2 1 1 -0 -1 -1 -2 -2 -3 -3 -4 -4 -5 -5 -6 -6
13 13 14 14 14 14 14 14 14 14 13 13 12 12 12 11 11 11 10 10 9 8 6 5 3 3 3 2 2 1 1 -0 -1 -1 -2 -2 -3 -3 -4 -4 -4 -5 -6 -6
12 12 13 13 13 13 13 13 12 12 11 11 11 11 10 10 10 10 10 9 8 7 6 4 3 2 2 2 2 1 1 -0 -1 -1 -2 -2 -3 -3 -4 -4 -5 -5 -5 -6
11 11 11 12 12 11 11 11 10 10 10 10 10 9 9 9 9 9 9 9 8 7 6 5 4 2 1 2 2 1 1 0 -0 -1 -2 -2 -3 -3 -4 -4 -5 -5 -5 -6
10 10 10 9 9 9 9 9 9 8 8 8 8 8 8 8 9 9 9 8 7 6 6 4 3 2 1 1 1 1 1 -0 -1 -1 -2 -2 -3 -3 -4 -4 -4 -5 -5 -6
8 8 8 8 8 7 7 7 7 7 7 7 7 7 7 7 7 8 7 6 6 5 5 3 2 0 -0 0 0 0 0 0 -1 -1 -2 -2 -3 -3 -4 -4 -4 -5 -5 -6
7 7 7 7 6 6 6 6 6 6 6 6 6 6 6 7 7 6 6 5 5 5 4 2 1 -0 -1 -1 -0 -0 -0 -0 -0 -1 -1 -2 -3 -3 -4 -4 -4 -5 -5 -6
6 6 5 5 5 5 5 5 5 5 5 5 5 5 6 6 6 5 5 5 5 4 3 1 -0 -1 -2 -2 -1 -1 -1 -0 -0 -1 -1 -2 -2 -3 -3 -4 -4 -5 -5 -6
5 5 4 4 4 4 4 4 4 4 4 4 5 5 5 5 5 5 4 5 5 3 2 0 -1 -2 -2 -2 -3 -2 -1 -1 -1 -1 -1 -2 -2 -3 -3 -4 -4 -5 -5 -6
4 4 4 3 3 3 3 3 3 3 3 3 4 4 4 4 5 5 5 4 3 2 1 -1 -2 -3 -3 -3 -4 -3 -2 -1 -1 -1 -1 -1 -2 -2 -3 -4 -4 -5 -5 -6
3 3 3 3 2 2 2 2 2 2 2 2 3 3 3 4 4 4 4 4 3 1 -0 -1 -2 -4 -4 -5 -4 -4 -3 -2 -1 -1 -1 -1 -1 -2 -3 -3 -4 -5 -5 -6
3 2 2 2 1 1 1 1 1 1 1 1 2 2 2 3 3 4 3 2 1 0 -1 -2 -4 -5 -6 -6 -5 -4 -3 -2 -1 -1 -1 -1 -1 -2 -3 -3 -4 -4 -5 -6
1 1 1 1 0 0 0 0 0 0 1 1 1 2 2 2 2 2 2 2 1 -1 -2 -3 -5 -5 -6 -6 -6 -5 -4 -2 -1 -0 -0 -1 -1 -2 -3 -3 -4 -4 -5 -6
0 -0 -0 -0 -0 -0 -0 -0 -0 -0 0 0 1 1 1 2 2 2 1 1 0 -1 -3 -4 -5 -6 -6 -6 -6 -5 -4 -3 -2 -1 -1 -1 -1 -2 -2 -3 -4 -4 -5 -5
-1 -1 -1 -1 -1 -1 -1 -1 -1 -1 -1 -0 0 0 1 1 1 1 1 0 -1 -2 -3 -4 -5 -6 -6 -6 -6 -5 -4 -3 -2 -1 -1 -1 -1 -2 -2 -3 -3 -4 -5 -5

GEFSNGP_850_meantemp_054.txt.gz
Temperature
10 11 11 11 12 11 11 12 12 14 14 16 17 14 15 17 17 17 17 17 17 17 16 15 14 13 12 10 9 7 5 3 3 2 1 0 -0 -1 -2 -2 -3 -3 -4 -4
9 10 10 10 11 12 12 12 12 13 14 16 16 15 15 15 15 16 17 17 17 17 16 15 15 14 13 11 9 7 5 4 3 2 1 0 -0 -1 -2 -2 -3 -3 -4 -4
8 10 10 10 12 12 11 10 11 12 14 15 13 12 13 15 16 16 16 17 17 17 16 16 15 14 13 12 10 8 6 4 3 2 1 0 -1 -1 -1 -2 -3 -3 -4 -4
6 9 10 13 13 12 12 12 11 12 13 13 12 14 15 15 16 16 17 17 17 16 15 15 14 14 13 11 10 8 6 4 3 2 1 0 -1 -1 -1 -2 -3 -3 -4 -4
6 7 9 10 11 11 11 11 12 12 13 13 13 12 15 18 17 17 17 16 16 15 14 14 14 13 12 11 9 8 6 5 3 2 1 0 -1 -1 -1 -2 -2 -3 -3 -4
5 6 8 12 13 13 13 12 14 12 11 12 11 10 13 17 16 16 15 15 14 14 14 14 13 12 11 10 9 8 7 6 4 2 1 0 -0 -1 -2 -2 -2 -3 -3 -4
5 6 8 10 11 12 12 13 14 14 14 13 11 12 15 15 15 15 14 14 14 13 13 13 12 11 11 10 9 9 7 5 3 2 1 0 -1 -1 -2 -2 -2 -3 -3 -4
4 5 7 10 10 11 13 14 15 15 15 14 14 14 14 14 14 14 13 13 13 12 12 12 11 11 10 10 9 7 6 4 3 2 1 -0 -1 -1 -2 -2 -2 -3 -3 -4
7 10 11 12 12 14 13 13 14 14 14 13 13 13 13 13 13 13 12 12 12 11 11 11 11 10 9 9 8 6 5 4 3 2 1 -0 -1 -1 -2 -2 -2 -3 -3 -4
6 7 10 12 12 13 14 13 13 13 13 12 12 12 12 12 12 12 11 11 11 11 11 11 10 10 9 8 6 5 4 3 2 1 0 -0 -1 -1 -2 -2 -2 -3 -3 -4
8 8 10 11 13 13 13 12 12 12 11 11 11 11 11 11 11 10 10 10 10 10 10 10 10 9 9 7 6 5 3 2 1 1 0 -0 -1 -1 -1 -2 -2 -3 -3 -4
9 10 9 10 11 11 11 10 10 10 10 10 10 9 9 9 9 9 9 9 9 9 9 9 9 9 8 7 5 4 2 1 1 0 -0 -1 -1 -1 -2 -2 -3 -3 -4 -4
10 10 10 10 10 10 9 9 9 9 8 8 8 8 8 8 8 8 8 8 8 8 8 8 8 8 7 6 5 3 2 1 0 -0 -1 -1 -1 -1 -2 -2 -3 -3 -4 -4
9 9 8 8 8 8 8 8 8 8 7 7 7 7 7 7 7 7 7 7 7 7 8 8 7 7 6 5 4 3 1 0 -1 -1 -1 -1 -1 -1 -1 -2 -3 -3 -4 -4
7 7 7 7 7 7 7 6 6 6 6 6 6 6 5 5 5 6 6 6 6 6 7 7 7 7 5 4 3 2 1 -1 -2 -2 -2 -2 -2 -1 -2 -2 -3 -3 -4 -4
6 6 6 6 6 6 6 5 5 5 5 5 5 4 4 4 4 5 5 5 5 5 6 6 6 5 4 4 3 1 -0 -1 -3 -3 -3 -3 -3 -2 -2 -2 -3 -3 -4 -4
5 5 5 5 5 5 4 4 4 4 4 4 3 3 3 3 3 4 4 4 4 4 5 5 5 4 4 3 2 1 -1 -2 -4 -5 -4 -4 -3 -2 -2 -2 -3 -3 -3 -4
5 5 5 4 4 4 4 4 3 3 3 3 2 2 2 2 2 2 2 2 3 3 4 4 4 3 3 2 1 -0 -1 -2 -4 -5 -5 -4 -4 -3 -2 -2 -3 -3 -3 -4
5 4 4 4 3 3 3 3 3 2 2 2 1 1 1 1 1 1 1 1 1 2 3 3 3 3 2 2 0 -1 -2 -3 -4 -5 -5 -5 -5 -4 -3 -3 -3 -3 -3 -4
4 4 3 3 3 3 3 3 2 2 2 1 1 1 0 1 0 0 0 0 1 1 1 1 1 2 1 1 -1 -2 -3 -4 -5 -5 -6 -6 -5 -4 -4 -3 -3 -3 -4 -4
4 3 3 3 3 3 3 2 2 1 1 1 0 -0 -0 -0 -0 -0 -0 -0 1 1 1 1 1 1 0 -0 -2 -3 -4 -5 -5 -6 -6 -6 -6 -5 -4 -3 -3 -3 -4 -4
3 3 3 2 2 2 2 2 1 1 0 0 -0 -1 -1 -1 -1 -1 -1 -1 -0 -0 -0 0 0 -0 -0 -1 -2 -3 -4 -5 -6 -7 -7 -6 -6 -5 -4 -4 -3 -3 -3 -4
2 2 2 1 1 1 1 1 1 0 -0 -1 -1 -1 -1 -1 -1 -2 -2 -1 -1 -1 -1 -1 -0 -1 -1 -2 -3 -4 -5 -6 -7 -7 -7 -6 -6 -5 -4 -4 -3 -3 -3 -4
1 1 1 1 0 0 0 0 -0 -1 -1 -1 -1 -1 -2 -2 -2 -1 -1 -1 -1 -1 -1 -1 -1 -1 -2 -3 -4 -4 -5 -6 -7 -7 -7 -7 -6 -6 -4 -4 -4 -3 -3 -4
0 0 -0 -0 -1 -1 -1 -1 -1 -1 -2 -2 -2 -1 -1 -2 -2 -1 -1 -1 -1 -1 -1 -1 -1 -2 -2 -3 -4 -5 -5 -6 -7 -7 -7 -7 -7 -6 -5 -4 -4 -3 -3 -4
-1 -1 -1 -1 -1 -1 -1 -2 -2 -2 -2 -3 -2 -2 -2 -1 -1 -1 -1 -1 -1 -2 -2 -2 -2 -2 -3 -3 -4 -5 -5 -6 -7 -7 -7 -7 -7 -6 -5 -4 -4 -4 -4 -4
-2 -2 -2 -1 -1 -2 -2 -2 -3 -3 -3 -3 -3 -2 -2 -2 -1 -1 -1 -1 -1 -2 -2 -2 -2 -3 -3 -4 -5 -5 -6 -6 -7 -7 -7 -7 -6 -6 -5 -4 -4 -4 -4 -4

GEFSNGP_850_meantemp_060.txt.gz
Temperature
9 10 9 9 10 10 9 10 10 12 12 14 14 13 13 14 13 13 14 14 14 14 14 15 15 15 15 14 14 14 13 13 13 11 10 8 6 5 3 2 1 0 -0 -1
8 9 8 8 9 10 10 10 10 11 11 13 13 12 12 12 12 12 13 13 14 14 14 14 14 14 14 14 13 13 13 13 12 11 9 7 6 4 2 1 1 -0 -1 -1
7 9 8 8 9 10 10 9 9 10 12 11 10 10 11 11 12 12 12 13 13 13 13 13 13 13 13 13 13 13 12 12 11 10 9 7 5 3 2 1 0 -0 -1 -1
5 8 8 11 10 10 10 10 10 10 10 10 10 11 12 12 12 12 12 12 12 12 12 13 13 12 12 12 12 12 11 11 10 9 8 6 4 3 2 1 0 -0 -1 -1
5 5 7 8 9 9 9 9 10 10 10 10 11 10 11 12 11 11 11 11 11 11 11 11 12 11 11 11 11 11 11 10 9 8 7 6 4 3 2 1 0 -0 -1 -1
4 5 7 9 10 11 10 9 11 11 10 10 9 7 8 11 10 10 10 10 10 10 10 11 11 10 10 10 10 10 10 9 8 7 6 5 4 3 1 0 -0 -1 -1 -1
4 4 7 8 8 10 9 10 11 11 10 10 8 8 9 9 9 9 9 9 9 9 9 10 10 9 9 9 9 9 9 8 8 7 6 5 3 1 0 -1 -1 -1 -1 -2
3 4 6 8 8 9 10 11 11 10 10 9 9 9 9 8 8 8 8 8 8 8 9 9 9 8 8 8 8 7 7 7 7 6 5 4 2 1 -1 -2 -2 -2 -2 -2
5 7 9 10 10 11 11 10 10 9 9 9 8 8 8 8 8 8 8 8 8 7 7 8 8 7 7 7 6 6 6 7 6 5 4 3 1 -0 -1 -2 -3 -3 -2 -2
5 6 7 9 10 10 10 9 9 9 8 8 7 7 7 6 6 6 7 7 6 6 6 7 7 6 6 6 5 5 6 6 5 4 3 1 0 -1 -2 -2 -2 -2 -3 -2
6 6 7 8 9 9 9 8 8 7 7 7 6 6 5 5 6 6 6 6 5 5 5 5 5 5 5 5 5 5 5 5 4 4 2 1 -1 -1 -2 -2 -2 -2 -2 -2
7 8 7 7 8 8 7 7 6 6 6 6 5 5 5 5 5 5 5 5 5 4 4 4 4 5 5 4 4 4 4 4 3 2 1 -0 -1 -2 -3 -3 -3 -3 -3 -3
7 8 7 7 7 6 6 5 5 5 5 5 5 4 4 4 4 4 4 4 4 3 3 3 3 3 4 3 3 3 3 3 2 2 1 -1 -2 -3 -3 -4 -5 -5 -4 -4
6 6 6 6 5 5 5 5 5 5 4 4 4 4 3 3 4 4 4 3 3 2 3 2 2 3 2 2 2 2 2 2 2 1 -0 -1 -3 -4 -4 -4 -5 -5 -4 -4
5 5 5 4 4 4 4 4 4 4 4 4 4 3 3 3 3 3 3 2 2 2 2 2 2 2 1 1 1 1 1 1 1 0 -1 -2 -3 -4 -5 -5 -5 -5 -5 -4
4 4 4 4 4 4 4 4 3 3 3 3 3 3 2 2 2 2 2 1 1 1 1 1 1 1 1 0 0 0 1 0 0 -0 -1 -3 -4 -5 -6 -6 -6 -6 -5 -5
3 3 4 4 3 3 3 3 3 2 2 2 2 1 1 1 1 1 1 1 0 0 1 0 0 0 0 -0 -0 -0 -0 -0 -1 -1 -2 -3 -4 -5 -6 -6 -6 -6 -6 -5
4 4 4 3 3 3 3 2 2 2 2 1 1 1 1 0 0 0 -0 -0 -0 0 1 0 -0 -1 -0 -0 -1 -1 -1 -1 -1 -2 -3 -4 -5 -6 -6 -7 -7 -7 -6 -5
4 3 3 3 3 2 2 2 2 1 1 1 0 -0 -0 -0 -0 -0 -1 -1 -1 -0 0 -0 -1 -1 -1 -1 -1 -1 -1 -1 -2 -2 -3 -4 -5 -6 -7 -7 -7 -7 -6 -6
3 2 2 2 2 2 1 1 1 1 0 0 -0 -0 -0 -0 -1 -1 -1 -1 -1 -1 -1 -2 -1 -1 -1 -1 -2 -2 -2 -2 -2 -3 -3 -4 -5 -6 -7 -7 -7 -7 -7 -6
2 2 1 1 1 1 1 1 0 -0 -0 -1 -1 -1 -1 -1 -1 -2 -2 -2 -1 -1 -2 -2 -2 -2 -2 -2 -2 -2 -3 -3 -3 -3 -4 -4 -5 -6 -7 -7 -8 -7 -7 -6
1 1 0 0 0 0 0 -0 -0 -1 -1 -1 -1 -1 -2 -2 -2 -2 -2 -2 -2 -2 -2 -2 -2 -2 -2 -2 -3 -3 -3 -3 -4 -4 -4 -5 -6 -6 -7 -7 -7 -7 -7 -6
0 0 -0 -0 -0 -1 -1 -1 -1 -1 -2 -2 -2 -2 -2 -2 -3 -3 -3 -2 -2 -2 -3 -3 -2 -2 -2 -3 -3 -3 -3 -4 -4 -4 -4 -5 -6 -6 -7 -7 -7 -7 -7 -6
-0 -0 -1 -1 -1 -1 -1 -1 -2 -2 -2 -2 -2 -2 -3 -3 -3 -3 -3 -3 -3 -3 -3 -2 -2 -2 -3 -3 -3 -3 -4 -4 -4 -4 -5 -5 -6 -7 -7 -7 -7 -7 -7 -6
-1 -1 -1 -1 -2 -2 -2 -2 -3 -3 -3 -3 -3 -3 -3 -3 -4 -3 -3 -3 -3 -3 -2 -2 -2 -2 -3 -3 -3 -4 -4 -4 -4 -5 -5 -6 -6 -7 -7 -7 -7 -7 -7 -6
-1 -2 -2 -2 -2 -2 -3 -3 -4 -4 -4 -4 -4 -4 -4 -4 -4 -3 -3 -3 -3 -2 -2 -2 -2 -2 -3 -3 -3 -4 -4 -4 -5 -5 -6 -6 -6 -7 -7 -7 -7 -7 -6 -6
-2 -2 -2 -2 -2 -3 -3 -4 -4 -5 -5 -5 -5 -5 -5 -4 -4 -4 -3 -3 -3 -3 -2 -2 -2 -3 -3 -3 -4 -4 -4 -5 -5 -6 -6 -6 -7 -7 -7 -7 -7 -7 -6 -6

GEFSNGP_850_meantemp_066.txt.gz
Temperature
15 15 15 14 14 14 14 14 15 16 16 17 17 15 14 13 12 11 11 11 10 10 10 10 11 11 11 11 11 11 11 11 11 11 11 10 10 9 8 7 6 4 3 1
13 14 13 13 13 14 14 14 14 15 15 16 14 13 13 12 12 11 11 10 10 10 10 10 9 9 10 10 10 10 10 10 10 10 10 9 9 8 7 7 5 4 2 0
13 13 11 12 14 14 14 14 14 14 15 14 13 12 12 11 11 10 10 9 9 9 9 8 8 8 8 9 9 9 9 9 9 9 9 8 8 7 7 6 4 3 2 -0
11 11 10 15 14 13 13 14 14 14 13 12 11 11 11 11 10 10 9 9 8 8 8 7 7 7 7 8 8 8 8 8 8 8 8 7 7 7 6 5 4 2 1 -0
10 10 12 14 13 12 12 13 13 12 12 11 10 10 12 11 9 8 8 8 7 7 6 6 6 6 6 7 7 7 7 7 7 7 6 6 6 6 5 4 3 2 0 -1
9 8 10 15 12 10 11 12 12 11 11 10 10 10 11 9 8 7 7 7 6 6 6 6 6 6 6 5 5 5 5 5 5 5 5 5 5 5 4 3 2 1 -1 -2
9 9 11 13 10 10 11 13 11 10 10 9 9 9 8 7 7 7 6 6 6 5 6 6 5 5 5 5 4 4 4 4 5 5 4 4 4 4 3 2 1 -0 -1 -2
9 9 10 12 9 12 13 11 10 10 9 8 8 7 7 6 6 5 5 5 5 5 5 5 5 4 4 3 3 3 3 3 4 3 3 3 3 3 2 1 -0 -1 -3 -4
10 11 13 10 11 11 9 9 9 8 8 7 6 6 6 5 5 5 5 4 4 4 4 4 4 3 2 2 2 2 2 2 2 2 3 2 2 2 1 0 -1 -2 -3 -4
10 11 11 11 10 9 9 8 8 7 6 6 5 5 4 4 4 4 4 4 4 3 3 3 3 3 2 2 1 1 1 1 1 1 1 1 1 1 0 -0 -1 -2 -4 -5
9 10 10 10 9 8 7 7 6 6 5 5 4 4 4 4 4 3 3 3 3 2 2 2 2 1 1 1 0 -0 -0 -0 -0 -0 -0 -0 0 0 -0 -1 -2 -3 -4 -5
9 10 10 9 8 7 6 5 5 4 4 4 4 3 3 3 3 3 3 3 2 2 1 1 1 0 0 -0 -1 -1 -1 -1 -1 -1 -1 -1 -1 -1 -0 -1 -2 -3 -4 -5
8 8 7 6 6 5 5 4 4 3 3 3 3 3 3 2 2 2 2 2 1 1 1 0 -0 -0 -0 -1 -1 -1 -2 -2 -2 -2 -2 -2 -2 -2 -2 -2 -2 -3 -4 -5
6 5 5 5 4 4 3 3 3 3 3 3 3 2 2 2 2 2 2 1 1 0 -0 -1 -1 -1 -1 -2 -2 -2 -2 -2 -2 -2 -2 -2 -2 -2 -3 -3 -4 -4 -4 -5
4 4 4 3 3 3 3 2 2 2 2 2 2 2 2 1 1 1 1 0 -0 -1 -1 -1 -1 -1 -1 -2 -2 -2 -2 -2 -2 -2 -2 -2 -2 -3 -3 -3 -4 -4 -5 -5
3 3 3 2 2 2 2 2 2 2 2 2 1 1 1 1 0 0 -0 -1 -1 -2 -1 -1 -1 -1 -2 -2 -3 -3 -3 -3 -3 -3 -3 -3 -3 -3 -4 -4 -5 -5 -5 -6
2 2 2 2 2 2 1 1 1 1 1 1 0 0 0 -0 -1 -1 -1 -2 -2 -2 -1 -2 -2 -2 -2 -2 -3 -3 -3 -3 -3 -3 -3 -4 -4 -4 -4 -5 -5 -5 -6 -6
2 2 1 1 1 1 1 1 1 1 0 0 -0 -1 -1 -1 -2 -2 -2 -3 -3 -2 -2 -2 -3 -3 -2 -3 -3 -3 -4 -4 -4 -4 -4 -4 -4 -4 -5 -5 -5 -5 -6 -6
2 2 1 1 1 1 1 0 0 0 -0 -1 -1 -1 -2 -2 -2 -3 -3 -3 -3 -3 -2 -2 -3 -3 -3 -3 -3 -4 -4 -4 -4 -4 -4 -4 -5 -5 -5 -5 -5 -6 -6 -7
2 2 1 1 1 1 0 -0 -0 -1 -1 -1 -2 -2 -2 -3 -3 -3 -4 -4 -3 -4 -4 -4 -4 -4 -3 -3 -4 -4 -4 -4 -4 -4 -4 -4 -5 -5 -5 -5 -6 -6 -6 -7
2 1 1 1 0 -0 -1 -1 -1 -2 -2 -2 -2 -2 -3 -3 -3 -4 -5 -5 -4 -4 -4 -4 -4 -4 -4 -4 -4 -4 -4 -4 -4 -4 -4 -5 -5 -5 -5 -5 -6 -6 -6 -7
1 1 0 -0 -1 -1 -1 -1 -1 -1 -2 -2 -2 -2 -3 -4 -4 -5 -5 -5 -5 -5 -5 -5 -5 -4 -4 -4 -4 -4 -4 -4 -4 -4 -5 -5 -5 -5 -5 -6 -6 -6 -6 -7
1 0 -0 -1 -1 -1 -1 -1 -1 -1 -2 -2 -2 -3 -4 -5 -5 -6 -6 -5 -5 -5 -6 -5 -5 -4 -4 -4 -4 -4 -4 -4 -4 -5 -5 -5 -5 -5 -6 -6 -6 -6 -7 -7
0 -0 -1 -1 -1 -1 -1 -1 -1 -2 -2 -2 -3 -4 -5 -5 -6 -6 -6 -6 -6 -6 -6 -5 -4 -4 -4 -4 -4 -4 -4 -4 -4 -5 -5 -5 -6 -6 -6 -6 -6 -7 -7 -7
-0 -1 -1 -1 -2 -2 -2 -2 -2 -3 -3 -4 -4 -5 -5 -6 -6 -6 -6 -6 -6 -6 -5 -5 -4 -4 -4 -4 -4 -4 -4 -4 -5 -5 -6 -6 -6 -6 -6 -7 -7 -7 -7 -7
-1 -1 -2 -2 -2 -2 -2 -3 -3 -4 -4 -5 -5 -5 -5 -6 -6 -6 -6 -6 -6 -6 -5 -5 -4 -4 -4 -4 -4 -4 -4 -5 -5 -5 -6 -6 -6 -6 -7 -7 -7 -7 -7 -7
-2 -2 -2 -2 -2 -2 -3 -3 -4 -4 -5 -6 -6 -6 -6 -6 -6 -7 -7 -6 -6 -6 -6 -5 -4 -4 -4 -4 -4 -4 -5 -5 -5 -6 -6 -6 -6 -7 -7 -7 -7 -7 -7 -7

GEFSNGP_850_meantemp_072.txt.gz
Temperature
15 15 15 15 15 15 14 14 13 14 14 15 15 14 14 14 13 13 13 12 11 11 10 10 9 9 9 8 8 8 8 7 7 7 7 7 6 6 6 6 6 5 5 5
13 14 14 14 14 14 14 14 14 14 14 15 14 14 13 12 12 12 12 11 11 10 9 9 8 8 8 7 7 7 7 7 7 6 6 6 6 5 5 5 5 4 4 4
11 13 12 12 14 14 14 15 14 13 14 14 12 12 12 12 12 11 11 10 9 9 8 8 7 7 7 6 6 6 6 6 6 5 5 5 5 5 4 4 4 4 4 3
10 11 9 12 15 15 14 14 14 13 13 12 12 12 12 12 11 10 9 9 8 8 7 7 7 6 6 6 6 5 5 5 5 4 4 4 4 4 3 3 3 3 3 2
9 9 10 13 14 14 13 13 13 12 12 12 12 11 11 11 10 9 8 8 7 7 7 6 6 6 5 5 5 4 4 4 4 3 3 3 3 2 2 2 2 1 1 1
9 8 8 13 12 13 12 11 11 11 11 11 10 7 8 9 8 8 7 7 7 6 6 5 5 5 4 4 4 3 3 3 3 2 2 2 1 1 1 0 0 0 0 0
8 8 9 13 11 12 11 10 11 11 10 10 8 7 8 8 7 7 6 6 6 5 5 5 4 4 3 3 3 3 2 2 2 1 1 0 0 0 -0 -0 -0 -0 -0 -0
8 8 9 12 12 11 11 11 11 10 9 8 8 7 7 6 6 6 5 5 5 4 4 4 4 3 3 3 2 2 1 1 1 0 -0 -1 -1 -1 -1 -1 -1 -1 -1 -1
10 10 13 13 12 12 11 10 9 8 8 7 7 6 6 5 5 5 4 4 4 4 3 3 3 2 2 2 1 1 0 -0 -0 -1 -1 -1 -2 -2 -2 -2 -2 -2 -2 -2
10 11 12 12 12 10 9 8 8 7 7 6 6 5 5 4 4 4 4 3 3 3 3 2 2 2 1 1 0 -0 -1 -1 -1 -2 -2 -2 -2 -2 -2 -2 -2 -2 -2 -2
9 9 11 11 9 8 7 7 6 6 5 5 5 4 4 3 3 3 3 3 2 2 2 1 1 1 0 -0 -1 -1 -2 -2 -2 -2 -3 -3 -3 -3 -3 -3 -3 -3 -3 -3
8 9 8 8 7 7 6 6 5 5 4 4 4 3 3 3 3 3 2 2 2 1 1 0 0 -0 -1 -1 -2 -2 -2 -2 -3 -3 -3 -3 -4 -3 -3 -3 -3 -3 -3 -4
8 7 7 6 6 6 5 5 4 4 3 3 3 3 3 2 2 2 2 1 1 0 0 -0 -1 -1 -1 -2 -2 -3 -3 -3 -3 -4 -4 -4 -4 -4 -4 -3 -3 -3 -3 -4
6 6 5 5 5 4 4 4 3 3 3 3 2 2 2 2 2 1 1 0 0 -0 -1 -1 -1 -1 -2 -3 -3 -3 -4 -4 -4 -4 -4 -4 -4 -4 -4 -4 -4 -4 -4 -4
5 5 4 4 4 4 3 3 3 2 2 2 2 2 1 1 1 0 0 -0 -1 -1 -1 -1 -2 -2 -3 -3 -4 -4 -4 -4 -4 -4 -4 -4 -4 -4 -4 -4 -4 -4 -4 -4
4 4 4 4 3 3 3 2 2 2 2 1 1 1 0 0 -0 -0 -1 -1 -1 -2 -2 -2 -3 -3 -4 -4 -5 -5 -5 -5 -5 -5 -5 -4 -4 -4 -4 -5 -5 -5 -5 -5
4 3 3 3 3 3 2 2 2 1 1 1 1 0 -0 -0 -1 -1 -1 -1 -2 -2 -2 -3 -3 -4 -4 -5 -5 -5 -5 -5 -5 -5 -5 -5 -5 -5 -5 -5 -5 -5 -5 -5
3 3 3 3 2 2 2 2 1 1 1 0 0 -0 -0 -1 -1 -1 -1 -2 -2 -3 -3 -3 -4 -5 -5 -5 -5 -5 -5 -5 -5 -5 -5 -5 -5 -5 -5 -5 -5 -5 -5 -5
3 3 3 2 2 2 2 1 1 1 0 0 -0 -0 -1 -1 -1 -2 -2 -3 -3 -4 -4 -4 -5 -5 -5 -5 -6 -6 -5 -5 -5 -5 -5 -5 -5 -5 -5 -5 -5 -5 -5 -6
3 2 2 2 2 2 1 1 1 0 0 -0 -0 -1 -1 -1 -2 -2 -3 -3 -4 -4 -5 -5 -5 -5 -6 -6 -6 -6 -5 -5 -5 -5 -5 -5 -5 -5 -5 -5 -5 -6 -6 -6
2 2 2 2 1 1 1 1 0 0 0 -0 -1 -1 -1 -2 -2 -3 -4 -4 -4 -4 -5 -5 -6 -6 -6 -6 -6 -5 -5 -5 -5 -5 -5 -5 -5 -5 -6 -6 -6 -6 -6 -6
1 1 1 1 1 1 0 0 -0 -0 -0 -1 -1 -1 -2 -2 -3 -3 -4 -4 -4 -5 -6 -6 -6 -6 -6 -6 -6 -5 -5 -5 -5 -5 -5 -6 -6 -6 -6 -6 -6 -6 -6 -6
1 1 1 0 0 0 -0 -0 -0 -1 -1 -1 -2 -2 -2 -3 -3 -4 -5 -5 -5 -6 -6 -6 -6 -6 -6 -6 -6 -6 -5 -5 -6 -6 -6 -6 -6 -6 -6 -6 -6 -6 -6 -6
0 0 0 -0 -0 -1 -1 -1 -1 -1 -2 -2 -2 -2 -3 -4 -4 -4 -5 -5 -6 -6 -6 -6 -6 -6 -6 -6 -6 -6 -6 -6 -6 -6 -6 -6 -6 -6 -6 -6 -6 -7 -7 -7
0 -0 -0 -1 -1 -1 -2 -2 -2 -2 -2 -2 -3 -3 -4 -4 -5 -5 -5 -6 -6 -7 -7 -6 -6 -6 -6 -6 -6 -6 -6 -6 -6 -6 -6 -6 -6 -6 -6 -7 -7 -7 -7 -7
-1 -1 -1 -2 -2 -2 -2 -2 -2 -3 -3 -3 -3 -3 -4 -5 -5 -5 -6 -6 -7 -7 -7 -7 -7 -7 -7 -7 -7 -7 -7 -7 -7 -7 -7 -7 -7 -7 -7 -7 -7 -7 -7 -7
-2 -2 -2 -2 -2 -2 -3 -3 -3 -3 -3 -4 -4 -4 -5 -5 -5 -6 -6 -7 -7 -7 -7 -7 -7 -7 -7 -7 -7 -7 -7 -7 -7 -7 -7 -7 -7 -7 -7 -7 -7 -7 -7 -7

GEFSNGP_850_meantemp_078.txt.gz
Temperature
11 11 11 11 11 11 10 9 10 10 10 11 11 10 10 10 10 10 9 9 9 8 8 8 7 7 7 6 6 6 6 5 5 5 5 4 4 4 3 3 3 3 3 3
11 11 10 10 10 10 10 10 9 10 10 10 10 10 10 9 9 9 8 8 8 7 7 7 6 6 6 6 5 5 5 5 4 4 4 3 3 3 2 2 2 2 2 2
8 9 9 8 9 9 9 9 9 9 10 9 9 9 9 9 8 8 7 7 7 7 6 6 6 5 5 5 4 4 4 4 3 3 3 2 2 2 1 1 1 1 1 0
7 8 8 10 10 10 10 10 10 9 9 9 9 9 9 8 7 7 7 6 6 6 5 5 5 5 4 4 4 3 3 3 2 2 2 1 1 1 0 0 -0 -0 -0 -1
6 6 7 8 10 10 10 9 9 8 8 8 8 7 7 8 7 6 6 6 5 5 5 4 4 4 3 3 3 3 2 2 1 1 1 0 0 -0 -1 -1 -1 -1 -1 -1
5 6 7 9 10 11 10 8 8 7 7 7 7 5 5 7 6 6 5 5 5 4 4 4 4 3 3 3 2 2 1 1 0 0 -0 -1 -1 -1 -1 -2 -2 -2 -2 -2
5 5 7 8 9 10 9 8 8 7 7 7 6 5 6 6 5 5 5 4 4 4 3 3 3 2 2 2 1 1 0 0 -0 -1 -1 -1 -2 -2 -2 -2 -2 -3 -3 -3
4 5 7 9 9 8 7 7 7 7 6 6 6 5 5 5 4 4 4 4 3 3 3 3 2 2 1 1 1 0 -0 -1 -1 -1 -2 -2 -3 -3 -3 -3 -3 -3 -4 -3
6 7 8 9 8 8 8 7 7 6 6 5 5 4 4 4 4 4 3 3 3 2 2 2 2 1 1 0 -0 -1 -1 -2 -2 -2 -3 -3 -3 -3 -3 -4 -4 -4 -4 -4
5 6 7 7 7 7 6 6 6 5 5 4 4 4 3 3 3 3 2 2 2 2 1 1 1 1 0 -0 -1 -2 -2 -2 -3 -3 -3 -4 -4 -4 -4 -4 -5 -5 -5 -4
5 6 6 6 6 5 5 5 5 4 4 4 3 3 3 3 2 2 2 2 1 1 1 1 0 0 -0 -1 -2 -3 -3 -3 -4 -4 -4 -5 -5 -5 -5 -5 -5 -5 -5 -4
5 6 5 6 5 5 5 5 4 4 4 4 3 3 2 2 2 2 1 1 1 1 0 -0 -0 -1 -1 -2 -3 -4 -4 -4 -5 -5 -5 -5 -5 -5 -5 -5 -5 -5 -5 -5
6 6 6 5 5 5 5 4 4 4 3 3 3 2 2 2 2 1 1 1 0 -0 -0 -1 -1 -1 -2 -3 -4 -4 -5 -5 -5 -6 -6 -6 -6 -6 -6 -5 -5 -5 -5 -5
5 5 5 5 4 4 4 4 4 3 3 3 2 2 2 1 1 1 1 0 -0 -1 -1 -1 -2 -2 -2 -3 -4 -5 -5 -5 -6 -6 -6 -6 -6 -6 -6 -6 -6 -5 -5 -5
5 5 4 4 4 4 4 3 3 3 3 2 2 2 1 1 1 0 0 -0 -1 -1 -1 -1 -2 -2 -3 -4 -5 -5 -6 -6 -6 -6 -6 -6 -6 -6 -6 -6 -6 -6 -6 -5
4 4 4 4 4 3 3 3 2 2 2 2 2 1 1 0 0 0 -0 -1 -1 -2 -2 -2 -2 -3 -4 -4 -5 -6 -6 -6 -6 -6 -6 -6 -6 -6 -6 -6 -6 -6 -6 -6
3 3 3 3 3 3 2 2 2 2 2 1 1 1 0 -0 -0 -0 -1 -1 -2 -2 -2 -2 -3 -4 -4 -5 -6 -6 -6 -6 -6 -6 -6 -6 -6 -6 -6 -6 -6 -6 -6 -6
3 3 3 2 2 2 2 2 2 1 1 1 0 0 -0 -1 -1 -1 -1 -2 -2 -2 -2 -3 -4 -4 -5 -5 -6 -6 -6 -6 -6 -6 -6 -6 -6 -6 -6 -6 -6 -6 -6 -6
2 2 2 2 2 2 1 1 1 1 0 0 -0 -1 -1 -1 -1 -2 -2 -2 -2 -3 -3 -4 -4 -5 -5 -5 -6 -6 -6 -7 -7 -6 -6 -6 -6 -6 -7 -7 -7 -7 -7 -6
2 2 2 2 1 1 1 1 0 0 -0 -1 -1 -1 -1 -2 -2 -2 -2 -3 -3 -3 -4 -4 -5 -5 -6 -6 -6 -7 -7 -7 -7 -7 -7 -7 -7 -7 -7 -7 -7 -7 -7 -7
2 1 1 1 1 1 0 -0 -0 -1 -1 -1 -2 -2 -2 -2 -2 -3 -3 -3 -3 -4 -4 -5 -5 -6 -6 -7 -7 -7 -7 -7 -7 -7 -7 -7 -7 -7 -7 -7 -7 -7 -7 -7
1 0 0 0 -0 -0 -0 -1 -1 -1 -2 -2 -2 -2 -3 -3 -3 -3 -3 -4 -4 -4 -5 -5 -6 -6 -7 -7 -7 -7 -7 -7 -8 -8 -8 -8 -8 -8 -7 -7 -7 -7 -7 -7
-0 -0 -0 -1 -1 -1 -1 -1 -1 -2 -2 -2 -3 -3 -3 -3 -3 -4 -4 -4 -5 -5 -6 -6 -6 -7 -7 -7 -7 -7 -8 -8 -8 -8 -8 -8 -8 -8 -7 -7 -7 -7 -7 -7
-1 -1 -1 -1 -1 -2 -2 -2 -2 -2 -3 -3 -3 -3 -3 -4 -4 -4 -4 -5 -5 -5 -6 -6 -6 -7 -7 -7 -8 -8 -8 -8 -8 -8 -8 -8 -8 -8 -8 -8 -8 -8 -8 -8
-1 -1 -2 -2 -2 -2 -2 -3 -3 -3 -3 -3 -3 -3 -3 -4 -4 -4 -5 -5 -5 -6 -6 -6 -7 -7 -7 -8 -8 -8 -8 -9 -9 -9 -8 -8 -8 -8 -8 -8 -8 -8 -8 -8
-2 -2 -2 -2 -3 -3 -3 -3 -4 -4 -4 -4 -4 -4 -4 -4 -4 -5 -5 -5 -6 -6 -6 -7 -7 -8 -8 -8 -8 -9 -9 -9 -9 -8 -8 -8 -8 -8 -8 -8 -8 -8 -8 -8
-2 -2 -3 -3 -3 -3 -4 -4 -4 -4 -4 -5 -5 -5 -5 -5 -5 -5 -6 -6 -6 -7 -7 -7 -8 -8 -9 -9 -9 -9 -9 -9 -9 -9 -8 -8 -8 -8 -8 -8 -8 -8 -8 -8

GEFSNGP_850_meantemp_084.txt.gz
Temperature
11 12 11 11 11 9 9 9 9 9 9 10 9 8 9 9 9 9 9 8 8 8 7 7 6 6 5 5 5 4 4 4 4 4 4 4 3 3 3 3 2 2 1 1
10 10 9 9 9 9 9 9 8 9 9 9 8 8 8 8 8 8 8 8 7 7 6 5 5 5 4 4 4 4 4 4 3 3 3 3 3 3 2 2 1 1 1 0
8 9 9 8 9 9 8 7 8 8 8 7 6 7 8 8 8 8 7 7 6 5 5 5 4 4 4 4 4 3 3 3 3 3 3 2 2 2 1 1 1 0 -0 -1
7 8 9 10 10 9 8 8 7 7 7 6 7 8 8 8 8 7 6 6 5 5 4 4 4 3 3 3 3 3 3 3 2 2 2 2 1 1 1 0 -1 -1 -1 -2
6 7 7 8 8 8 8 8 7 6 6 7 7 7 7 7 7 6 5 5 4 4 4 4 3 3 3 3 3 3 2 2 2 1 1 1 1 0 -0 -1 -1 -2 -2 -3
5 6 7 9 9 9 8 8 7 6 5 6 6 5 5 7 6 5 5 4 4 4 4 3 3 3 3 3 2 2 2 1 1 1 0 -0 -0 -1 -1 -2 -3 -3 -3 -3
5 6 7 8 9 9 8 8 7 7 7 6 5 5 6 5 5 4 4 4 3 3 3 3 2 2 2 2 2 1 1 1 1 0 -1 -1 -1 -2 -3 -3 -4 -4 -4 -4
5 5 7 8 7 7 7 7 7 7 7 7 6 5 5 4 4 4 3 3 3 3 3 3 2 2 2 1 1 1 0 0 0 -0 -1 -2 -2 -2 -3 -4 -5 -5 -5 -5
7 7 7 7 8 8 8 7 7 7 6 6 5 5 4 4 3 3 3 3 2 2 2 2 2 1 1 1 0 -0 -0 -0 -1 -1 -1 -2 -3 -4 -4 -5 -6 -6 -6 -6
5 5 6 6 7 7 7 7 7 6 5 5 4 4 3 3 3 3 2 2 2 2 2 2 2 1 1 0 -0 -1 -1 -1 -1 -2 -2 -3 -4 -5 -5 -6 -6 -7 -6 -6
4 5 5 5 6 6 6 6 5 5 4 4 3 3 3 2 2 2 2 2 1 1 1 1 1 1 0 -0 -1 -1 -2 -2 -2 -3 -3 -4 -5 -5 -6 -6 -6 -6 -6 -6
5 5 4 5 6 6 6 5 4 4 3 3 3 2 2 2 2 2 2 1 1 1 1 0 0 0 -0 -1 -2 -2 -3 -3 -3 -4 -4 -5 -6 -6 -6 -6 -6 -6 -6 -6
6 6 6 6 6 5 5 4 3 3 3 3 2 2 2 2 2 1 1 1 0 0 0 -0 -0 -1 -1 -2 -2 -3 -3 -4 -4 -5 -5 -6 -7 -7 -7 -6 -6 -6 -6 -6
5 5 5 5 4 4 4 3 3 3 2 2 2 2 2 2 1 1 1 1 0 -0 -0 -1 -1 -1 -2 -2 -3 -3 -4 -4 -5 -5 -6 -7 -7 -7 -7 -7 -7 -7 -6 -6
4 4 4 4 3 3 3 2 2 2 2 2 2 2 1 1 1 1 0 0 -0 -1 -1 -1 -2 -2 -2 -3 -3 -4 -4 -5 -5 -6 -7 -7 -7 -7 -7 -7 -7 -7 -7 -7
3 3 3 3 3 2 2 2 2 2 2 2 2 1 1 1 0 0 0 -0 -1 -1 -1 -2 -2 -2 -3 -3 -4 -4 -5 -5 -6 -7 -7 -7 -7 -7 -8 -8 -8 -8 -7 -7
2 2 2 2 2 2 2 2 2 2 1 1 1 1 0 0 0 -0 -0 -1 -2 -2 -2 -2 -2 -3 -3 -3 -4 -5 -5 -6 -6 -7 -7 -7 -8 -8 -8 -8 -8 -8 -8 -8
3 2 2 2 2 2 2 2 1 1 1 1 0 0 -0 -0 -1 -1 -1 -2 -2 -2 -2 -2 -3 -3 -3 -4 -5 -5 -6 -6 -7 -7 -8 -8 -8 -8 -8 -8 -8 -8 -8 -8
2 2 2 2 1 1 1 1 1 1 0 -0 -0 -1 -1 -1 -1 -2 -2 -2 -3 -2 -2 -3 -3 -4 -4 -5 -5 -6 -6 -7 -7 -7 -8 -8 -8 -8 -8 -8 -8 -8 -8 -8
1 1 1 1 1 1 1 0 0 -0 -0 -1 -1 -1 -1 -1 -2 -2 -3 -3 -3 -3 -3 -4 -4 -4 -5 -5 -6 -6 -7 -7 -8 -8 -8 -8 -9 -9 -9 -9 -9 -8 -8 -8
1 1 1 1 1 0 0 -0 -1 -1 -1 -1 -2 -2 -2 -2 -2 -3 -4 -4 -3 -3 -4 -4 -4 -5 -5 -6 -6 -7 -7 -7 -8 -8 -8 -9 -9 -9 -9 -9 -9 -9 -9 -8
0 0 0 0 -0 -0 -0 -1 -1 -1 -2 -2 -2 -2 -3 -3 -3 -4 -4 -4 -4 -4 -5 -5 -5 -5 -6 -6 -7 -7 -7 -8 -8 -8 -9 -9 -9 -9 -9 -9 -9 -9 -9 -9
-0 -0 -0 -1 -1 -1 -1 -1 -1 -2 -2 -2 -3 -3 -3 -4 -4 -5 -5 -4 -5 -5 -5 -5 -5 -6 -6 -7 -7 -8 -8 -8 -8 -9 -9 -9 -9 -9 -9 -9 -9 -9 -9 -9
-1 -1 -1 -1 -2 -2 -2 -2 -2 -2 -3 -3 -3 -3 -4 -4 -4 -5 -5 -5 -5 -6 -6 -6 -6 -6 -7 -7 -8 -8 -8 -9 -9 -9 -9 -9 -9 -9 -9 -9 -9 -9 -9 -9
-1 -1 -2 -2 -2 -2 -2 -2 -3 -3 -3 -3 -3 -4 -4 -5 -5 -5 -5 -6 -6 -6 -6 -6 -7 -7 -7 -8 -8 -8 -9 -9 -9 -10 -10 -9 -9 -9 -9 -9 -9 -9 -9 -9
-2 -2 -2 -2 -3 -3 -3 -3 -4 -4 -4 -4 -4 -4 -5 -5 -6 -6 -6 -6 -6 -7 -7 -7 -7 -7 -8 -8 -9 -9 -9 -9 -9 -9 -9 -9 -9 -9 -9 -9 -9 -9 -9 -9
-2 -2 -3 -3 -3 -3 -4 -4 -5 -5 -5 -5 -6 -6 -6 -6 -6 -7 -7 -7 -7 -7 -8 -8 -8 -8 -9 -9 -9 -9 -10 -10 -10 -10 -10 -10 -9 -9 -9 -9 -9 -9 -9 -9

GEFSNGP_850_meantemp_090.txt.gz
Temperature
16 15 14 15 15 13 14 16 17 17 17 18 17 16 14 12 10 9 8 8 8 8 8 7 7 7 6 6 5 5 5 4 4 4 4 4 4 3 3 3 2 2 2 2
14 13 13 13 14 14 14 15 16 16 16 17 15 14 12 11 9 8 8 7 8 8 7 7 6 6 6 5 5 4 4 4 4 4 3 3 3 3 3 2 2 1 1 0
15 12 12 13 14 14 14 14 15 15 16 15 12 11 11 10 9 8 8 7 7 7 7 6 6 5 5 4 4 4 4 4 3 3 3 3 2 2 1 1 1 0 -0 -1
13 12 12 16 14 14 14 15 14 14 13 12 12 10 9 9 8 8 7 7 7 6 6 5 5 4 4 4 4 3 3 3 3 2 2 2 1 1 0 -0 -1 -1 -1 -2
12 13 14 15 12 12 12 13 14 13 12 10 8 8 8 7 7 7 7 7 6 6 5 5 4 4 4 3 3 3 3 2 2 2 1 1 0 -0 -1 -1 -2 -2 -2 -3
11 11 12 15 12 10 12 13 12 11 10 8 8 10 10 7 7 7 7 6 6 5 4 4 3 3 3 3 2 2 2 2 1 1 0 -0 -1 -1 -2 -2 -3 -3 -3 -4
11 11 14 13 9 10 12 14 10 9 9 8 9 10 8 7 6 6 6 5 5 4 4 3 3 3 2 2 2 1 1 1 1 0 -0 -1 -1 -2 -3 -3 -4 -4 -5 -5
11 11 12 10 9 11 13 9 8 8 8 7 7 7 7 6 6 5 5 4 4 4 3 3 3 2 2 2 1 1 1 0 -0 -0 -1 -1 -2 -3 -3 -4 -4 -5 -5 -5
12 13 11 9 10 10 9 8 8 7 7 7 7 6 6 5 5 4 4 4 3 3 3 3 2 2 1 1 0 0 -0 -0 -1 -1 -2 -2 -3 -4 -4 -4 -5 -6 -6 -6
10 10 8 7 7 8 8 8 8 8 7 7 7 6 5 4 4 4 3 3 3 3 2 2 2 1 1 0 -0 -1 -1 -1 -2 -2 -2 -3 -4 -4 -5 -5 -6 -6 -6 -6
9 9 7 6 7 7 8 8 7 7 7 6 6 5 4 4 4 3 3 3 2 2 2 2 1 1 1 -0 -1 -1 -2 -2 -3 -3 -3 -4 -4 -5 -5 -6 -6 -7 -7 -7
11 10 9 8 8 7 7 7 7 6 6 5 5 4 4 3 3 3 3 2 2 2 1 1 0 0 -0 -1 -1 -2 -2 -3 -3 -4 -4 -4 -5 -5 -5 -6 -6 -7 -7 -7
8 8 7 7 7 7 6 6 6 5 5 4 4 3 3 3 3 2 2 2 1 1 1 0 -0 -0 -1 -1 -2 -2 -3 -3 -4 -4 -5 -5 -6 -6 -7 -6 -7 -7 -7 -7
7 7 6 6 6 6 5 5 5 4 4 3 3 3 3 2 2 2 2 1 1 0 0 -0 -1 -1 -1 -2 -2 -3 -3 -4 -4 -5 -5 -6 -6 -7 -7 -7 -7 -7 -7 -7
5 6 6 5 5 5 4 4 4 3 3 3 3 2 2 2 2 1 1 1 0 -0 -0 -1 -1 -1 -2 -2 -3 -3 -4 -4 -4 -5 -6 -6 -7 -7 -8 -8 -8 -8 -8 -8
4 4 4 4 4 4 3 3 3 3 2 2 2 2 2 1 1 1 0 -0 -1 -1 -1 -1 -1 -2 -2 -3 -3 -4 -4 -4 -5 -6 -6 -7 -7 -8 -8 -8 -8 -8 -8 -8
3 2 3 3 3 3 3 3 3 2 2 2 2 1 1 1 0 0 -0 -1 -1 -1 -1 -2 -2 -2 -3 -3 -4 -4 -5 -5 -5 -6 -7 -7 -8 -8 -8 -8 -8 -8 -8 -9
4 4 4 3 3 2 2 2 2 2 2 1 1 1 0 -0 -0 -1 -1 -1 -1 -1 -1 -2 -3 -3 -3 -4 -5 -5 -5 -6 -6 -7 -7 -7 -8 -8 -8 -9 -9 -9 -9 -9
2 3 3 2 2 2 2 2 1 1 1 1 0 -0 -0 -1 -1 -1 -2 -2 -2 -2 -2 -3 -3 -4 -4 -4 -5 -5 -6 -6 -7 -7 -7 -8 -8 -8 -9 -9 -9 -9 -9 -9
2 2 2 2 2 1 1 1 1 1 0 -0 -1 -1 -1 -1 -1 -2 -2 -2 -2 -3 -3 -4 -4 -4 -5 -5 -6 -6 -6 -7 -7 -7 -8 -8 -8 -9 -9 -9 -9 -10 -10 -9
1 1 1 1 1 1 1 0 0 -0 -0 -1 -1 -1 -2 -2 -2 -2 -3 -3 -3 -3 -4 -4 -5 -5 -6 -6 -6 -7 -7 -7 -7 -8 -8 -9 -9 -9 -10 -10 -10 -10 -10 -10
1 1 1 0 0 0 -0 -0 -1 -1 -1 -1 -2 -2 -2 -2 -3 -3 -3 -4 -4 -4 -5 -5 -6 -6 -6 -7 -7 -7 -7 -8 -8 -8 -9 -9 -9 -10 -10 -10 -10 -10 -10 -10
0 0 -0 -0 -0 -1 -1 -1 -1 -2 -2 -2 -2 -2 -3 -3 -4 -4 -4 -4 -5 -5 -6 -6 -6 -7 -7 -7 -8 -8 -8 -8 -9 -9 -9 -10 -10 -10 -10 -10 -10 -10 -10 -10
-0 -0 -1 -1 -1 -1 -1 -1 -2 -2 -2 -2 -3 -3 -3 -4 -4 -4 -5 -5 -5 -6 -6 -6 -7 -7 -8 -8 -8 -8 -9 -9 -9 -10 -10 -10 -10 -10 -10 -10 -10 -10 -10 -10
-1 -1 -1 -1 -2 -2 -2 -2 -2 -2 -3 -3 -3 -4 -4 -5 -5 -5 -6 -6 -6 -7 -7 -7 -7 -8 -8 -8 -9 -9 -9 -10 -10 -10 -10 -10 -11 -11 -11 -11 -10 -10 -10 -10
-1 -2 -2 -2 -2 -2 -3 -3 -3 -3 -4 -4 -4 -5 -5 -5 -6 -6 -6 -7 -7 -8 -8 -8 -8 -8 -9 -9 -9 -10 -10 -10 -10 -10 -11 -11 -11 -11 -11 -11 -10 -10 -10 -10
-2 -2 -2 -2 -3 -3 -3 -4 -4 -4 -5 -5 -6 -6 -6 -6 -7 -7 -8 -8 -8 -9 -9 -9 -9 -9 -10 -10 -10 -10 -11 -11 -11 -11 -11 -11 -11 -11 -11 -11 -11 -10 -10 -10